Location: Newark
(34.1333°N, 7.9667°W)
Time: 23:33:12
(UTC+00:00)

RS-44 - Visible Passes

Search period start: 24 June 2024 00:00
Search period end: 04 July 2024 00:00
Orbit: 1174 x 1511 km, 82.5° (Epoch: 24 June)

Date Brightness Start Highest point End Pass type
(mag) Time Alt. Az. Time Alt. Az. Time Alt. Az.
24 Jun ? 00:24:46 10° N 00:32:50 80° E 00:33:39 73° SE visible
24 Jun ? 02:20:41 10° NW 02:25:23 17° W 02:26:14 17° W visible
24 Jun ? 22:56:44 10° NNE 23:02:42 22° ENE 23:04:38 20° E visible
25 Jun ? 00:48:35 10° NNW 00:56:33 67° W 00:57:13 64° WSW visible
25 Jun ? 23:19:29 10° NNE 23:26:48 36° ENE 23:28:13 34° E visible
26 Jun ? 01:12:43 10° NNW 01:20:10 42° W 01:20:48 41° W visible
26 Jun ? 23:42:45 10° N 23:50:45 58° E 23:51:48 54° ESE visible
27 Jun ? 01:37:19 10° NNW 01:43:38 26° W 01:44:23 25° W visible
27 Jun ? 22:15:56 10° NE 22:20:15 15° ENE 22:22:50 13° E visible
28 Jun ? 00:06:21 10° N 00:14:34 89° E 00:15:25 76° S visible
28 Jun ? 02:02:54 10° NW 02:06:57 15° W 02:08:00 14° W visible
28 Jun ? 22:37:58 10° NNE 22:44:31 25° ENE 22:46:27 24° E visible
29 Jun ? 00:30:15 10° NNW 00:38:15 59° W 00:39:02 57° WSW visible
29 Jun ? 23:00:55 10° N 23:08:35 41° ENE 23:10:05 38° E visible
30 Jun ? 00:54:29 10° NNW 01:01:50 37° W 01:02:40 36° W visible
30 Jun ? 23:24:17 10° N 23:32:30 65° E 23:33:44 59° ESE visible
01 Jul ? 01:19:15 10° NW 01:25:16 23° W 01:26:19 22° W visible
01 Jul ? 21:56:53 10° NNE 22:02:07 18° ENE 22:04:48 15° E visible
01 Jul ? 23:47:58 10° N 23:56:18 82° W 23:57:24 71° SSW visible
02 Jul ? 01:45:22 10° WNW 01:48:32 13° W 01:49:59 12° W visible
02 Jul ? 22:19:17 10° NNE 22:26:21 29° ENE 22:28:29 27° E visible
03 Jul ? 00:11:57 10° NNW 00:19:58 53° W 00:21:04 50° WSW visible
03 Jul ? 22:42:23 10° N 22:50:23 47° E 22:52:10 42° ESE visible
